OK3FM-13 Weather Reports


Display with metric or nautical units.
time (UTC)temp
F
wind
direction
speed
MPH
gust
MPH
rain 1hr
in
rain 24hr
in
rain mn
in
humidity
%
barometer
mb
20260905174824 69 0.0 0.0 0.00 0.00 0.00 40 1021.8
20260905173824 69 0.0 0.0 0.00 0.00 0.00 39 1021.7
20260905172824 70 0.0 0.0 0.00 0.00 0.00 39 1021.7
20260905171824 70 0.0 0.0 0.00 0.00 0.00 39 1021.5
20260905170824 70 0.0 0.0 0.00 0.00 0.00 38 1021.4
20260905165824 71 0.0 0.0 0.00 0.00 0.00 38 1021.2
20260905164824 70 0.0 0.0 0.00 0.00 0.00 38 1021.1
20260905163824 71 0.0 0.0 0.00 0.00 0.00 38 1021.1
20260905162824 71 0.0 0.0 0.00 0.00 0.00 38 1021.0
20260905161824 71 0.0 0.0 0.00 0.00 0.00 38 1020.9
20260905160824 72 0.0 0.0 0.00 0.00 0.00 38 1020.8
20260905155824 72 0.0 0.0 0.00 0.00 0.00 37 1020.7
20260905154824 72 0.0 0.0 0.00 0.00 0.00 38 1020.6
20260905153824 72 0.0 0.0 0.00 0.00 0.00 37 1020.6
20260905152824 72 0.0 0.0 0.00 0.00 0.00 37 1020.6
20260905151824 72 0.0 0.0 0.00 0.00 0.00 37 1020.5
20260905150824 72 0.0 0.0 0.00 0.00 0.00 37 1020.5
20260905145824 72 0.0 0.0 0.00 0.00 0.00 38 1020.5
20260905144824 73 0.0 0.0 0.00 0.00 0.00 38 1020.3
20260905143824 73 0.0 0.0 0.00 0.00 0.00 37 1020.3
20260905142824 73 0.0 0.0 0.00 0.00 0.00 38 1020.3
20260905141824 73 0.0 0.0 0.00 0.00 0.00 38 1020.3
20260905140824 73 0.0 0.0 0.00 0.00 0.00 37 1020.2
20260905135824 73 0.0 0.0 0.00 0.00 0.00 38 1020.3
20260905134824 72 0.0 0.0 0.00 0.00 0.00 39 1020.5
20260905133824 72 0.0 0.0 0.00 0.00 0.00 39 1020.5
20260905132824 71 0.0 0.0 0.00 0.00 0.00 42 1020.7
20260905131825 72 0.0 0.0 0.00 0.00 0.00 41 1020.7
20260905130824 72 0.0 0.0 0.00 0.00 0.00 42 1020.7
20260905125824 70 0.0 0.0 0.00 0.00 0.00 45 1020.8
20260905124824 69 0.0 0.0 0.00 0.00 0.00 47 1021.0
20260905123824 69 0.0 0.0 0.00 0.00 0.00 48 1021.1
20260905122824 70 0.0 0.0 0.00 0.00 0.00 47 1021.0
20260905121824 70 0.0 0.0 0.00 0.00 0.00 46 1021.0
20260905120824 70 0.0 0.0 0.00 0.00 0.00 44 1021.0
20260905115824 71 0.0 0.0 0.00 0.00 0.00 45 1021.1
20260905114824 71 0.0 0.0 0.00 0.00 0.00 43 1021.1
20260905113824 70 0.0 0.0 0.00 0.00 0.00 44 1021.2
20260905112824 70 0.0 0.0 0.00 0.00 0.00 45 1021.2
20260905111824 70 0.0 0.0 0.00 0.00 0.00 44 1021.3
20260905110824 69 0.0 0.0 0.00 0.00 0.00 47 1021.3
20260905105824 68 0.0 0.0 0.00 0.00 0.00 47 1021.3
20260905104824 67 0.0 0.0 0.00 0.00 0.00 50 1021.4
20260905103824 68 0.0 0.0 0.00 0.00 0.00 50 1021.3
20260905102824 68 0.0 0.0 0.00 0.00 0.00 49 1021.3
20260905101824 68 0.0 0.0 0.00 0.00 0.00 48 1021.2
20260905100824 67 0.0 0.0 0.00 0.00 0.00 53 1021.2
20260905095824 66 0.0 0.0 0.00 0.00 0.00 58 1021.2
20260905094824 66 0.0 0.0 0.00 0.00 0.00 61 1021.1
20260905093824 67 0.0 0.0 0.00 0.00 0.00 60 1021.1
20260905092827 67 0.0 0.0 0.00 0.00 0.00 59 1021.2
20260905091822 66 0.0 0.0 0.00 0.00 0.00 63 1021.3
20260905090823 65 0.0 0.0 0.00 0.00 0.00 63 1021.3
20260905085822 65 0.0 0.0 0.00 0.00 0.00 64 1021.0
20260905084822 65 0.0 0.0 0.00 0.00 0.00 65 1021.1
20260905083822 65 0.0 0.0 0.00 0.00 0.00 65 1021.0
20260905082822 65 0.0 0.0 0.00 0.00 0.00 65 1020.9
20260905081822 65 0.0 0.0 0.00 0.00 0.00 69 1020.8
20260905080822 64 0.0 0.0 0.00 0.00 0.00 70 1020.7
20260905075822 63 0.0 0.0 0.00 0.00 0.00 72 1020.6
20260905074822 63 0.0 0.0 0.00 0.00 0.00 73 1020.6
20260905073822 63 0.0 0.0 0.00 0.00 0.00 74 1020.7
20260905072822 62 0.0 0.0 0.00 0.00 0.00 74 1020.6
20260905071822 62 0.0 0.0 0.00 0.00 0.00 75 1020.6
20260905070822 62 0.0 0.0 0.00 0.00 0.00 75 1020.6
20260905065822 62 0.0 0.0 0.00 0.00 0.00 75 1020.5
20260905064822 62 0.0 0.0 0.00 0.00 0.00 78 1020.6
20260905063822 61 0.0 0.0 0.00 0.00 0.00 80 1020.5
20260905062822 61 0.0 0.0 0.00 0.00 0.00 80 1020.5
20260905061822 60 0.0 0.0 0.00 0.00 0.00 81 1020.4
20260905060822 60 0.0 0.0 0.00 0.00 0.00 81 1020.4
20260905055822 60 0.0 0.0 0.00 0.00 0.00 81 1020.4
20260905054822 60 0.0 0.0 0.00 0.00 0.00 81 1020.1
20260905053822 60 0.0 0.0 0.00 0.00 0.00 79 1019.8
20260905052822 60 0.0 0.0 0.00 0.00 0.00 80 1019.6
20260905051822 60 0.0 0.0 0.00 0.00 0.00 80 1019.7
20260905050822 60 0.0 0.0 0.00 0.00 0.00 80 1019.6
20260905045822 61 0.0 0.0 0.00 0.00 0.00 80 1019.3
20260905044822 61 0.0 0.0 0.00 0.00 0.00 80 1018.7
20260905043823 61 0.0 0.0 0.00 0.00 0.00 81 1019.3
20260905042822 62 0.0 0.0 0.00 0.00 0.00 80 1019.4
20260905041822 62 0.0 0.0 0.00 0.00 0.00 80 1019.2
20260905040822 62 0.0 0.0 0.00 0.00 0.00 82 1019.5
20260905035822 62 0.0 0.0 0.00 0.00 0.00 80 1019.0
20260905034822 63 0.0 0.0 0.00 0.00 0.00 83 1019.0
20260905033822 63 0.0 0.0 0.00 0.00 0.00 85 1019.1
20260905032822 64 0.0 0.0 0.00 0.00 0.00 83 1019.2
20260905031822 64 0.0 0.0 0.00 0.00 0.00 83 1018.5
20260905030822 64 0.0 0.0 0.00 0.00 0.00 82 1017.8
20260905025822 65 0.0 0.0 0.00 0.00 0.00 79 1017.6
20260905024822 65 0.0 0.0 0.00 0.00 0.00 77 1017.4
20260905023822 65 0.0 0.0 0.00 0.00 0.00 78 1017.7
20260905022822 65 0.0 0.0 0.00 0.00 0.00 78 1018.0
20260905021822 65 0.0 0.0 0.00 0.00 0.00 77 1017.8
20260905020822 65 0.0 0.0 0.00 0.00 0.00 76 1017.6
20260905015822 65 0.0 0.0 0.00 0.00 0.00 78 1017.9
20260905014822 65 0.0 0.0 0.00 0.00 0.00 78 1017.6
20260905013822 65 0.0 0.0 0.00 0.00 0.00 78 1017.2
20260905012822 65 0.0 0.0 0.00 0.00 0.00 77 1017.5
20260905011822 65 0.0 0.0 0.00 0.00 0.00 77 1017.4
20260905010822 66 0.0 0.0 0.00 0.00 0.00 74 1017.1
20260905005822 66 0.0 0.0 0.00 0.00 0.00 72 1017.0
20260905004822 67 0.0 0.0 0.00 0.00 0.00 69 1016.9
20260905003822 67 0.0 0.0 0.00 0.00 0.00 68 1017.0
20260905002822 67 0.0 0.0 0.00 0.00 0.00 66 1017.0
20260905001822 68 0.0 0.0 0.00 0.00 0.00 64 1016.8
20260905000822 68 0.0 0.0 0.00 0.00 0.00 61 1016.5
20260904235822 68 0.0 0.0 0.00 0.00 0.00 61 1016.4
20260904234822 68 0.0 0.0 0.00 0.00 0.00 60 1016.2
20260904233822 68 0.0 0.0 0.00 0.00 0.00 60 1016.3
20260904232822 68 0.0 0.0 0.00 0.00 0.00 60 1015.6
20260904231822 68 0.0 0.0 0.00 0.00 0.00 60 1015.3
20260904230822 68 0.0 0.0 0.00 0.00 0.00 60 1015.1
20260904225822 68 0.0 0.0 0.00 0.00 0.00 60 1014.8
20260904224822 69 0.0 0.0 0.00 0.00 0.00 61 1014.5
20260904223822 70 0.0 0.0 0.00 0.00 0.00 62 1014.2
20260904222822 70 0.0 0.0 0.00 0.00 0.00 61 1014.1
20260904221822 71 0.0 0.0 0.00 0.00 0.00 60 1013.5
20260904220822 72 0.0 0.0 0.00 0.00 0.00 59 1013.3
20260904215822 72 0.0 0.0 0.00 0.00 0.00 60 1013.2
20260904214822 72 0.0 0.0 0.00 0.00 0.00 59 1012.9
20260904213822 73 0.0 0.0 0.00 0.00 0.00 57 1012.6
20260904212824 73 0.0 0.0 0.00 0.00 0.00 57 1012.6
20260904211821 74 0.0 0.0 0.00 0.00 0.00 55 1012.4
20260904210821 76 0.0 0.0 0.00 0.00 0.00 51 1012.3
20260904205821 77 0.0 0.0 0.00 0.00 0.00 48 1012.1
20260904204821 77 0.0 0.0 0.00 0.00 0.00 47 1011.7
20260904203821 78 0.0 0.0 0.00 0.00 0.00 46 1011.7
20260904202821 78 0.0 0.0 0.00 0.00 0.00 46 1011.8
20260904201821 78 0.0 0.0 0.00 0.00 0.00 46 1011.8
20260904200821 78 0.0 0.0 0.00 0.00 0.00 46 1011.9
20260904195821 78 0.0 0.0 0.00 0.00 0.00 46 1012.0
20260904194821 78 0.0 0.0 0.00 0.00 0.00 45 1012.1
20260904193821 78 0.0 0.0 0.00 0.00 0.00 45 1012.1
20260904192821 78 0.0 0.0 0.00 0.00 0.00 46 1012.2
20260904191821 78 0.0 0.0 0.00 0.00 0.00 46 1012.2
20260904190821 79 0.0 0.0 0.00 0.00 0.00 46 1012.2
20260904185821 79 0.0 0.0 0.00 0.00 0.00 46 1012.2
20260904184821 79 0.0 0.0 0.00 0.00 0.00 46 1012.2
20260904183820 79 0.0 0.0 0.00 0.00 0.00 46 1012.2
20260904182821 79 0.0 0.0 0.00 0.00 0.00 46 1012.2
20260904181820 80 0.0 0.0 0.00 0.00 0.00 46 1012.3
20260904180821 80 0.0 0.0 0.00 0.00 0.00 45 1012.5
20260904175821 80 0.0 0.0 0.00 0.00 0.00 45 1012.4